カタログに戻る

STARLINK-4170

運用中通信VLEO
NORAD 53140·PAYLOAD·🇺🇸 United States

打ち上げ Jul 17, 2022 から Cape Canaveral Space Force Station

Loading…

次のパス (今後24時間)

TLE

最新Source: CelesTrak SupGP

元期: Sep 15, 2026, 02:58 UTC

1 53140C 22083J   26258.12409722 -.00012000  00000+0 -34342-3 0  2589
2 53140  53.1592  31.3079 0001148  88.9557 272.5605 15.35397568    19

AllMySatでSTARLINK-4170をリアルタイム追跡

Download on the App Store